Wind_Speed
32 32 32 32 33 33 33 32 32 31 31 31 31 32 32 32 32 31 31 31 30 30 30 30 30 29 29 30 30 31 31 31 31 31 31 32 32 33
32 32 32 32 32 32 32 32 32 32 31 31 31 32 32 31 31 32 31 31 30 30 30 30 30 29 29 29 30 30 30 30 31 31 30 31 31 33
32 32 32 32 31 31 31 31 32 32 31 31 31 32 32 32 32 32 31 31 31 31 30 29 29 29 29 29 29 29 29 30 30 30 29 29 30 31
33 32 32 31 31 31 31 31 31 32 31 31 31 32 32 32 31 31 30 30 30 30 29 29 29 28 28 28 28 28 29 29 29 28 29 29 30 31
33 32 32 31 31 31 31 31 31 31 31 31 31 31 31 30 30 29 29 28 28 28 28 28 28 28 28 27 27 28 28 29 29 28 28 29 30 30
32 32 32 31 31 31 32 32 32 32 31 30 30 30 30 30 29 29 28 28 27 28 28 27 27 27 28 27 28 28 29 28 28 28 28 28 29 30
32 31 31 31 31 32 32 32 31 31 30 29 29 29 29 29 29 29 28 27 27 27 27 26 27 27 26 27 27 27 27 27 27 27 27 27 28 29
32 31 30 30 31 31 32 31 30 30 29 29 29 28 28 28 29 28 27 27 26 27 27 26 27 26 25 25 25 25 25 25 26 26 27 28 28 29
33 32 31 30 30 30 30 30 30 29 29 29 28 27 28 28 28 28 27 26 26 26 26 26 26 25 24 24 24 24 24 24 24 25 26 27 28 28
33 33 32 31 30 30 30 30 29 29 29 28 28 28 28 27 27 27 27 26 26 26 26 26 25 24 24 23 23 23 23 23 23 24 25 27 27 27
33 32 32 31 31 30 30 30 29 29 29 28 28 28 28 27 27 27 27 26 26 26 26 25 24 24 24 24 23 23 23 24 25 25 26 27 26 26
32 31 31 31 30 31 30 29 29 29 29 29 28 28 27 26 27 27 27 26 26 25 24 24 24 23 23 23 23 23 23 24 25 25 25 26 25 25
31 31 31 31 31 30 29 28 28 28 28 28 28 27 27 27 27 26 26 26 25 24 23 23 22 22 22 22 22 23 23 24 25 26 26 25 24 24
32 31 31 31 30 29 29 28 28 27 27 27 27 26 26 26 25 24 24 24 23 22 21 21 21 21 21 21 22 22 23 24 24 25 25 24 24 24
33 32 31 30 30 29 28 28 27 27 27 26 25 24 24 23 22 22 22 21 21 20 20 20 20 21 21 21 22 22 23 23 23 24 24 23 23 23
33 32 30 29 29 29 28 27 27 26 25 24 23 22 22 21 20 20 20 20 20 19 19 20 20 20 20 20 21 22 22 23 23 23 23 23 23 22
32 31 30 29 29 29 29 28 27 25 24 23 23 22 21 21 20 20 20 20 20 19 19 19 20 20 20 19 20 21 22 22 23 23 22 21 22 22
31 30 29 29 29 28 28 27 26 25 24 23 23 22 22 21 20 21 21 20 20 19 19 19 19 19 19 20 20 21 21 23 23 22 21 21 21 21
30 30 29 29 29 28 28 27 27 26 25 23 22 22 21 21 21 21 20 20 20 19 18 18 18 18 18 19 20 21 21 22 22 22 21 20 20 19
30 30 29 29 29 28 28 27 26 26 25 24 23 22 22 21 21 21 21 20 19 18 17 17 18 18 18 19 19 21 21 21 21 21 20 19 18 17
30 30 29 29 29 29 28 27 26 25 25 25 24 23 23 22 22 21 20 19 18 17 17 17 17 18 18 19 19 19 20 21 20 20 19 17 16 16
29 30 30 29 28 28 28 27 26 25 25 24 25 24 24 22 21 21 20 19 18 17 18 17 17 17 17 18 18 18 18 20 20 20 19 17 16 15
30 30 30 29 28 28 28 27 26 25 25 24 24 24 23 22 21 20 19 19 18 17 17 17 16 16 16 16 16 16 17 19 19 19 19 17 16 15
Wind_Direction
282 284 285 288 289 289 290 291 293 294 296 298 298 300 302 303 302 302 301 300 298 296 297 298 298 298 298 296 296 296 295 294 292 290 287 286 285 287
282 283 285 287 288 289 290 291 293 295 296 297 298 299 301 302 303 302 301 300 298 298 297 297 298 298 299 300 299 299 297 295 295 293 290 287 287 289
281 282 283 286 288 289 290 292 293 295 295 296 297 298 300 300 302 303 301 300 300 299 298 297 298 299 300 301 301 302 301 300 300 298 294 291 291 292
280 281 283 284 287 289 291 292 294 294 295 296 297 297 299 301 302 302 301 301 301 300 299 297 297 298 300 302 302 301 301 302 302 299 297 296 296 294
278 279 281 284 286 289 290 292 294 295 294 295 296 297 298 300 302 302 301 301 301 302 301 299 298 298 300 302 301 303 302 302 302 300 299 299 298 296
276 278 280 282 285 288 289 290 292 293 294 295 295 296 298 300 302 302 300 300 301 302 303 302 300 300 300 301 301 303 304 303 303 302 301 300 300 300
275 278 280 282 284 287 288 289 291 293 293 294 295 297 297 298 301 301 300 300 300 303 303 303 302 303 303 303 302 304 305 305 305 305 304 304 304 303
273 276 279 281 284 286 287 287 289 291 292 294 295 297 299 300 302 300 300 300 300 302 303 304 304 304 305 305 305 307 308 308 307 306 307 306 305 304
271 274 277 280 282 284 285 286 288 290 292 293 294 296 297 299 300 299 300 300 300 301 303 305 305 305 305 305 306 308 309 310 309 308 309 309 308 309
270 272 274 278 280 280 282 284 286 288 289 290 292 293 294 297 298 299 299 299 299 301 303 304 304 305 306 306 306 308 310 311 311 311 311 312 313 313
268 270 273 276 278 278 279 281 283 285 287 289 291 293 293 294 296 297 298 299 301 303 304 303 303 305 306 307 307 308 311 314 315 314 315 316 315 315
267 269 273 276 277 277 279 280 282 283 285 287 290 292 292 294 295 295 297 298 300 301 302 303 304 305 306 307 308 310 312 316 318 317 317 317 318 318
266 269 272 274 275 276 277 278 280 282 284 286 289 290 291 293 293 295 296 297 299 300 301 302 304 305 307 309 310 311 314 316 319 320 319 319 320 320
265 268 270 272 273 274 275 277 279 282 285 288 288 289 291 292 292 293 295 297 299 301 302 303 304 307 308 310 312 314 316 318 321 321 320 321 322 323
264 267 269 269 269 271 273 276 278 282 285 287 288 289 291 291 293 295 295 296 298 300 301 302 305 308 309 311 315 317 319 321 324 325 323 323 324 325
262 264 266 267 267 268 270 273 277 280 283 284 287 288 290 291 291 292 294 296 299 300 300 301 305 309 312 314 316 319 321 323 325 326 326 325 325 325
261 263 264 265 267 267 268 270 273 276 279 282 284 287 288 288 289 290 293 296 298 299 301 303 305 308 310 312 316 320 322 323 326 326 325 324 324 324
260 262 263 264 264 265 266 268 269 272 275 280 283 284 285 287 287 288 289 292 293 294 297 302 304 305 308 311 315 319 322 323 325 326 326 325 325 325
260 260 261 262 263 265 266 267 269 270 272 277 281 282 282 284 285 285 286 289 291 293 296 299 301 303 307 311 314 317 321 322 323 325 326 327 327 327
259 259 260 261 262 263 264 265 266 267 269 272 275 277 279 281 284 283 284 285 287 291 293 295 299 303 307 311 313 316 320 322 324 326 326 327 330 330
257 258 259 260 261 260 262 263 263 264 267 270 273 274 276 279 282 281 281 282 285 288 290 293 297 302 306 310 314 318 321 325 328 330 331 331 330 329
256 257 258 258 258 258 258 260 261 263 267 269 271 272 274 276 278 279 278 279 282 284 287 291 295 301 306 310 314 318 322 328 332 332 333 336 335 335
254 256 257 255 255 255 254 257 259 262 265 268 270 271 272 272 273 275 275 277 279 281 284 288 293 300 306 310 314 318 323 330 334 333 333 336 339 339
Height
5726 5724 5723 5721 5718 5716 5713 5711 5709 5706 5703 5698 5694 5690 5686 5682 5678 5674 5671 5668 5664 5661 5658 5655 5652 5649 5646 5643 5640 5637 5633 5630 5627 5623 5621 5618 5616 5613
5718 5717 5715 5713 5711 5708 5705 5702 5699 5697 5694 5691 5687 5683 5679 5675 5671 5667 5663 5660 5657 5654 5651 5648 5645 5641 5638 5635 5632 5629 5625 5621 5617 5614 5611 5609 5607 5604
5710 5709 5707 5705 5703 5700 5697 5694 5691 5688 5686 5683 5678 5675 5671 5668 5664 5660 5656 5653 5649 5646 5643 5640 5637 5634 5631 5628 5624 5621 5617 5613 5609 5606 5603 5600 5598 5595
5702 5700 5699 5697 5695 5692 5689 5687 5683 5680 5677 5674 5671 5667 5664 5660 5657 5653 5649 5646 5642 5639 5636 5633 5630 5627 5624 5620 5617 5613 5610 5606 5602 5599 5596 5593 5590 5586
5693 5692 5691 5689 5687 5684 5682 5679 5675 5672 5669 5666 5663 5660 5656 5653 5650 5646 5642 5639 5636 5632 5629 5626 5623 5620 5617 5613 5610 5606 5603 5599 5595 5592 5588 5585 5582 5578
5685 5684 5682 5681 5679 5677 5674 5671 5668 5664 5661 5658 5655 5653 5649 5646 5643 5640 5637 5633 5630 5626 5623 5619 5616 5613 5610 5606 5603 5599 5595 5592 5588 5585 5581 5577 5574 5570
5676 5676 5674 5673 5671 5668 5666 5663 5660 5657 5654 5650 5648 5645 5643 5640 5637 5634 5630 5627 5624 5620 5617 5613 5610 5607 5603 5600 5596 5592 5589 5585 5581 5578 5574 5570 5566 5562
5668 5667 5666 5664 5663 5660 5657 5655 5652 5649 5647 5644 5641 5639 5636 5633 5630 5627 5624 5621 5619 5616 5611 5608 5604 5601 5597 5594 5590 5586 5583 5579 5575 5571 5567 5563 5559 5555
5659 5658 5657 5656 5654 5652 5649 5647 5644 5641 5639 5637 5634 5632 5629 5627 5624 5621 5618 5615 5612 5609 5606 5602 5599 5595 5592 5588 5585 5581 5577 5573 5569 5565 5561 5557 5552 5548
5650 5649 5649 5647 5646 5644 5642 5639 5637 5634 5632 5630 5627 5625 5622 5620 5617 5615 5612 5609 5606 5603 5600 5597 5593 5590 5586 5583 5579 5575 5572 5568 5564 5560 5556 5551 5546 5541
5641 5640 5640 5639 5637 5636 5634 5632 5630 5627 5625 5622 5620 5618 5615 5613 5610 5608 5606 5603 5601 5597 5594 5591 5588 5584 5581 5577 5574 5570 5567 5563 5559 5554 5550 5545 5540 5536
5632 5631 5631 5630 5628 5627 5626 5624 5623 5620 5618 5616 5613 5611 5608 5606 5603 5601 5599 5597 5594 5591 5588 5585 5582 5579 5576 5573 5569 5565 5562 5558 5553 5549 5544 5539 5535 5531
5622 5623 5622 5621 5620 5619 5618 5617 5615 5613 5611 5609 5606 5604 5602 5599 5597 5595 5592 5590 5588 5585 5582 5579 5576 5573 5570 5568 5565 5561 5557 5553 5549 5544 5539 5534 5530 5526
5613 5613 5613 5613 5612 5611 5610 5609 5608 5606 5604 5601 5599 5597 5595 5592 5590 5588 5586 5584 5581 5579 5576 5574 5572 5569 5566 5563 5560 5557 5553 5548 5544 5539 5534 5530 5525 5521
5604 5604 5604 5604 5603 5603 5602 5601 5600 5598 5597 5595 5593 5591 5588 5586 5583 5581 5580 5578 5576 5574 5572 5569 5567 5565 5562 5559 5556 5552 5549 5544 5540 5535 5530 5526 5522 5518
5595 5595 5595 5595 5595 5595 5594 5594 5593 5592 5590 5589 5586 5584 5582 5580 5578 5576 5575 5573 5571 5569 5567 5565 5563 5560 5558 5555 5552 5548 5544 5540 5536 5531 5527 5522 5518 5514
5585 5586 5586 5587 5587 5587 5586 5586 5586 5585 5584 5582 5580 5579 5577 5575 5573 5571 5570 5568 5566 5565 5563 5561 5558 5556 5553 5551 5548 5545 5541 5537 5533 5528 5524 5520 5515 5511
5576 5577 5578 5579 5579 5579 5579 5579 5578 5578 5577 5576 5574 5573 5571 5570 5568 5567 5565 5563 5562 5560 5558 5556 5554 5552 5550 5547 5545 5541 5538 5534 5529 5525 5521 5517 5513 5508
5567 5568 5569 5570 5570 5571 5571 5571 5571 5570 5570 5569 5568 5567 5565 5564 5563 5561 5560 5558 5557 5556 5554 5552 5550 5549 5547 5544 5541 5537 5534 5530 5526 5522 5518 5514 5510 5505
5558 5559 5560 5561 5562 5562 5563 5563 5563 5563 5563 5562 5562 5561 5560 5558 5557 5556 5555 5554 5552 5551 5549 5547 5546 5544 5542 5540 5537 5533 5530 5526 5522 5519 5515 5511 5507 5503
5549 5550 5551 5553 5553 5554 5555 5555 5556 5556 5556 5556 5555 5554 5554 5553 5551 5550 5549 5548 5547 5546 5545 5543 5542 5540 5538 5536 5533 5530 5526 5522 5519 5515 5511 5508 5505 5502
5539 5541 5542 5544 5545 5546 5547 5547 5548 5549 5549 5549 5549 5548 5547 5547 5546 5545 5544 5543 5542 5541 5540 5539 5537 5535 5534 5532 5529 5526 5523 5520 5515 5511 5508 5505 5502 5499
5530 5531 5533 5535 5536 5537 5539 5540 5540 5541 5542 5542 5542 5541 5541 5540 5540 5539 5538 5538 5537 5536 5535 5534 5533 5531 5529 5528 5525 5523 5520 5517 5513 5509 5506 5502 5499 5496